Weather History for Jefferson City, MO

Change the Weather History Date:

Wednesday, July 3, 2013

  Actual Average Record
Temperature  
Mean Temperature 74 °F -  
Max Temperature 87 °F 88 °F 102 °F (1954)
Min Temperature 60 °F 64 °F 47 °F (1959)
Cooling Degree Days 8    
Growing Degree Days 24 (Base 50)    
Moisture  
Dew Point 54 °F    
Average Humidity 57    
Maximum Humidity 83    
Minimum Humidity 26    
Precipitation  
Precipitation 0.00 in - - ()
Sea Level Pressure  
Sea Level Pressure 30.01 in    
Wind  
Wind Speed 2 mph (WSW)    
Max Wind Speed 9 mph    
Max Gust Speed -    
Visibility 10 miles    
Events      
Averages and records for this station are not official NWS values.
T = Trace of Precipitation, MM = Missing Value Source: NWS Daily Summary

Daily Weather History Graph

Daily Weather History Graph

Search for Another Location

Airport:

Trip Planner

Search our weather history database for the weather conditions in past years. The results will help you decide how hot, cold, wet, or windy it might be!

Date:

Astronomy

Jul. 03, 2013 Rise Set
Actual Time 5:49 AM CDT 8:36 PM CDT
Civil Twilight 5:17 AM CDT 9:08 PM CDT
Nautical Twilight 4:37 AM CDT 9:47 PM CDT
Astronomical Twilight 3:52 AM CDT 10:32 PM CDT
Moon 2:25 AM CDT (7/3) 4:48 PM CDT (7/3)
Length of Visible Light 15h 50m
Length of Day
14h 47m
Waning Crescent, 18% of the Moon is Illuminated
Jul 3
Waning Crescent
Jul 8
New
Jul 15
First Quarter
Jul 22
Full
Jul 29
Last Quarter

Hourly Weather History & Observations

Time (CDT) Temp. Heat Index Dew Point Humidity Pressure Visibility Wind Dir Wind Speed Gust Speed Precip Events Conditions
12:53 AM 64.0 °F - 55.9 °F 75% 30.02 in 10.0 mi Calm Calm - N/A   Clear
1:53 AM 64.9 °F - 55.0 °F 70% 30.01 in 10.0 mi Calm Calm - N/A   Clear
2:53 AM 64.0 °F - 55.0 °F 73% 30.01 in 10.0 mi ESE 3.5 mph - N/A   Clear
3:53 AM 61.0 °F - 55.0 °F 81% 30.01 in 10.0 mi ESE 4.6 mph - N/A   Clear
4:53 AM 60.1 °F - 55.0 °F 83% 30.01 in 10.0 mi ESE 3.5 mph - N/A   Clear
5:53 AM 60.1 °F - 55.0 °F 83% 30.03 in 10.0 mi Variable 3.5 mph - N/A   Mostly Cloudy
6:53 AM 61.0 °F - 55.9 °F 83% 30.03 in 10.0 mi Calm Calm - N/A   Clear
7:53 AM 63.0 °F - 57.0 °F 81% 30.04 in 10.0 mi Calm Calm - N/A   Clear
8:53 AM 68.0 °F - 55.9 °F 65% 30.06 in 10.0 mi Calm Calm - N/A   Clear
9:53 AM 73.0 °F - 53.1 °F 49% 30.06 in 10.0 mi WSW 4.6 mph - N/A   Clear
10:53 AM 75.9 °F - 52.0 °F 43% 30.05 in 10.0 mi NW 4.6 mph - N/A   Clear
11:53 AM 79.0 °F - 53.1 °F 40% 30.04 in 10.0 mi WNW 5.8 mph - N/A   Clear
12:53 PM 79.0 °F - 52.0 °F 39% 30.02 in 10.0 mi Variable 4.6 mph - N/A   Clear
1:53 PM 82.9 °F - 52.0 °F 34% 30.01 in 10.0 mi Variable 3.5 mph - N/A   Clear
2:53 PM 84.0 °F - 48.9 °F 29% 30.00 in 10.0 mi Variable 3.5 mph - N/A   Clear
3:53 PM 87.1 °F - 48.0 °F 26% 29.98 in 10.0 mi Calm Calm - N/A   Clear
4:53 PM 82.0 °F - 51.1 °F 34% 29.97 in 10.0 mi SW 4.6 mph - N/A   Mostly Cloudy
5:53 PM 82.0 °F 81.4 °F 55.0 °F 39% 29.96 in 10.0 mi WSW 4.6 mph - N/A   Mostly Cloudy
6:53 PM 75.0 °F - 57.0 °F 53% 29.98 in 10.0 mi WNW 9.2 mph - N/A   Partly Cloudy
7:53 PM 73.9 °F - 57.0 °F 55% 29.99 in 10.0 mi NW 3.5 mph - N/A   Scattered Clouds
8:53 PM 73.0 °F - 54.0 °F 51% 29.99 in 10.0 mi Calm Calm - N/A   Clear
9:53 PM 70.0 °F - 55.9 °F 61% 30.01 in 10.0 mi Calm Calm - N/A   Clear
10:53 PM 68.0 °F - 53.1 °F 59% 29.99 in 10.0 mi East 3.5 mph - N/A   Clear
11:53 PM 64.0 °F - 55.0 °F 73% 30.02 in 10.0 mi Calm Calm - N/A   Clear